Time,TemperatureF,DewpointF,PressureIn,WindDirection,WindDirectionDegrees,WindSpeedMPH,WindSpeedGustMPH,Humidity,HourlyPrecipIn,Conditions,Clouds,dailyrainin,SolarRadiationWatts/m^2,SoftwareType,DateUTC
2013-05-15 00:00:00,71.1,53.6,29.96,WSW,253,6.0,6.0,54,0.00,,,0.00,0,Wunderground v.1.15,2013-05-15 04:00:00,
2013-05-15 00:02:00,71.1,53.6,29.96,WNW,287,6.0,7.0,54,0.00,,,0.00,0,Wunderground v.1.15,2013-05-15 04:02:00,
2013-05-15 00:06:00,71.1,53.6,29.96,SW,232,5.0,7.0,54,0.00,,,0.00,0,Wunderground v.1.15,2013-05-15 04:06:00,
2013-05-15 00:08:00,71.1,54.1,29.96,West,268,5.0,7.0,55,0.00,,,0.00,0,Wunderground v.1.15,2013-05-15 04:08:00,
2013-05-15 00:10:00,71.1,54.1,29.96,WSW,253,5.0,6.0,55,0.00,,,0.00,0,Wunderground v.1.15,2013-05-15 04:10:00,
2013-05-15 00:16:00,71.1,54.1,29.97,West,272,6.0,7.0,55,0.00,,,0.00,0,Wunderground v.1.15,2013-05-15 04:16:00,
2013-05-15 00:22:00,71.1,54.1,29.97,WSW,249,5.0,8.0,55,0.00,,,0.00,0,Wunderground v.1.15,2013-05-15 04:22:00,
2013-05-15 00:28:00,71.1,54.1,29.97,West,262,6.0,10.0,55,0.00,,,0.00,0,Wunderground v.1.15,2013-05-15 04:28:00,
2013-05-15 00:34:00,71.1,54.1,29.97,West,276,6.0,13.0,55,0.00,,,0.00,0,Wunderground v.1.15,2013-05-15 04:34:00,
2013-05-15 00:40:00,71.1,54.1,29.97,West,264,6.0,13.0,55,0.00,,,0.00,0,Wunderground v.1.15,2013-05-15 04:40:00,
2013-05-15 00:46:00,71.1,54.6,29.97,West,276,6.0,13.0,56,0.00,,,0.00,0,Wunderground v.1.15,2013-05-15 04:46:00,
2013-05-15 00:52:00,70.9,53.9,29.97,WNW,282,6.0,13.0,55,0.00,,,0.00,0,Wunderground v.1.15,2013-05-15 04:52:00,
2013-05-15 00:58:00,70.9,54.4,29.97,West,265,5.0,13.0,56,0.00,,,0.00,0,Wunderground v.1.15,2013-05-15 04:58:00,
2013-05-15 01:04:00,70.9,54.4,29.97,West,268,5.0,10.0,56,0.00,,,0.00,0,Wunderground v.1.15,2013-05-15 05:04:00,
2013-05-15 01:10:00,71.1,54.1,29.97,WNW,284,7.0,9.0,55,0.00,,,0.00,0,Wunderground v.1.15,2013-05-15 05:10:00,
2013-05-15 01:16:00,71.1,54.1,29.97,WSW,255,7.0,9.0,55,0.00,,,0.00,0,Wunderground v.1.15,2013-05-15 05:16:00,
2013-05-15 01:22:00,71.1,54.1,29.97,WNW,284,6.0,7.0,55,0.00,,,0.00,0,Wunderground v.1.15,2013-05-15 05:22:00,
2013-05-15 01:28:00,71.1,54.1,29.97,WSW,247,7.0,10.0,55,0.00,,,0.00,0,Wunderground v.1.15,2013-05-15 05:28:00,
2013-05-15 01:34:00,71.1,54.1,29.97,WSW,245,7.0,13.0,55,0.00,,,0.00,0,Wunderground v.1.15,2013-05-15 05:34:00,
2013-05-15 01:40:00,71.1,54.6,29.97,WNW,288,6.0,13.0,56,0.00,,,0.00,0,Wunderground v.1.15,2013-05-15 05:40:00,
2013-05-15 01:46:00,70.9,54.4,29.97,West,267,6.0,13.0,56,0.00,,,0.00,0,Wunderground v.1.15,2013-05-15 05:46:00,
2013-05-15 01:52:00,70.9,54.4,29.97,West,276,6.0,7.0,56,0.00,,,0.00,0,Wunderground v.1.15,2013-05-15 05:52:00,
2013-05-15 01:58:00,70.9,54.4,29.97,West,260,6.0,13.0,56,0.00,,,0.00,0,Wunderground v.1.15,2013-05-15 05:58:00,
2013-05-15 02:04:00,70.8,54.3,29.98,SW,231,5.0,6.0,56,0.00,,,0.00,0,Wunderground v.1.15,2013-05-15 06:04:00,
2013-05-15 02:10:00,70.8,54.3,29.98,West,264,4.0,5.0,56,0.00,,,0.00,0,Wunderground v.1.15,2013-05-15 06:10:00,
2013-05-15 02:16:00,70.6,54.1,29.98,West,274,5.0,7.0,56,0.00,,,0.00,0,Wunderground v.1.15,2013-05-15 06:16:00,
2013-05-15 02:22:00,70.6,54.1,29.98,WNW,300,4.0,6.0,56,0.00,,,0.00,0,Wunderground v.1.15,2013-05-15 06:22:00,
2013-05-15 02:28:00,70.4,54.0,29.98,West,264,3.0,6.0,56,0.00,,,0.00,0,Wunderground v.1.15,2013-05-15 06:28:00,
2013-05-15 02:34:00,70.3,53.9,29.98,West,271,2.0,17.0,56,0.00,,,0.00,0,Wunderground v.1.15,2013-05-15 06:34:00,
2013-05-15 02:40:00,70.1,54.2,29.98,West,264,3.0,17.0,57,0.00,,,0.00,0,Wunderground v.1.15,2013-05-15 06:40:00,
2013-05-15 02:46:00,69.9,54.0,29.99,WSW,251,3.0,17.0,57,0.00,,,0.00,0,Wunderground v.1.15,2013-05-15 06:46:00,
2013-05-15 02:52:00,69.9,54.0,29.99,West,267,3.0,17.0,57,0.00,,,0.00,0,Wunderground v.1.15,2013-05-15 06:52:00,
2013-05-15 02:58:00,69.8,54.4,29.99,WSW,254,3.0,17.0,58,0.00,,,0.00,0,Wunderground v.1.15,2013-05-15 06:58:00,
2013-05-15 03:04:00,69.8,54.4,29.99,WSW,248,4.0,9.0,58,0.00,,,0.00,0,Wunderground v.1.15,2013-05-15 07:04:00,
2013-05-15 03:10:00,69.6,54.2,29.99,West,274,4.0,4.0,58,0.00,,,0.00,0,Wunderground v.1.15,2013-05-15 07:10:00,
2013-05-15 03:16:00,69.4,54.0,29.99,WSW,254,4.0,9.0,58,0.00,,,0.00,0,Wunderground v.1.15,2013-05-15 07:16:00,
2013-05-15 03:22:00,69.3,53.9,29.99,West,276,3.0,4.0,58,0.00,,,0.00,0,Wunderground v.1.15,2013-05-15 07:22:00,
2013-05-15 03:28:00,69.1,54.2,29.99,West,263,3.0,4.0,59,0.00,,,0.00,0,Wunderground v.1.15,2013-05-15 07:28:00,
2013-05-15 03:34:00,69.1,54.2,29.98,West,272,3.0,10.0,59,0.00,,,0.00,0,Wunderground v.1.15,2013-05-15 07:34:00,
2013-05-15 03:40:00,68.9,54.0,29.99,WNW,289,2.0,10.0,59,0.00,,,0.00,0,Wunderground v.1.15,2013-05-15 07:40:00,
2013-05-15 03:46:00,68.8,54.3,29.99,West,276,1.0,10.0,60,0.00,,,0.00,0,Wunderground v.1.15,2013-05-15 07:46:00,
2013-05-15 03:52:00,68.6,54.2,29.98,West,276,2.0,10.0,60,0.00,,,0.00,0,Wunderground v.1.15,2013-05-15 07:52:00,
2013-05-15 03:58:00,68.3,54.3,29.98,West,262,2.0,10.0,61,0.00,,,0.00,0,Wunderground v.1.15,2013-05-15 07:58:00,
2013-05-15 04:04:00,68.1,54.1,29.98,West,273,3.0,3.0,61,0.00,,,0.00,0,Wunderground v.1.15,2013-05-15 08:04:00,
2013-05-15 04:10:00,67.9,54.0,29.98,West,262,3.0,3.0,61,0.00,,,0.00,0,Wunderground v.1.15,2013-05-15 08:10:00,
2013-05-15 04:16:00,67.8,53.9,29.98,West,270,3.0,5.0,61,0.00,,,0.00,0,Wunderground v.1.15,2013-05-15 08:16:00,
2013-05-15 04:22:00,67.8,54.3,29.98,West,259,4.0,4.0,62,0.00,,,0.00,0,Wunderground v.1.15,2013-05-15 08:22:00,
2013-05-15 04:28:00,67.6,54.1,29.97,West,265,3.0,4.0,62,0.00,,,0.00,0,Wunderground v.1.15,2013-05-15 08:28:00,
2013-05-15 04:34:00,67.6,54.1,29.98,West,281,3.0,9.0,62,0.00,,,0.00,0,Wunderground v.1.15,2013-05-15 08:34:00,
2013-05-15 04:40:00,67.4,53.9,29.98,West,259,4.0,9.0,62,0.00,,,0.00,0,Wunderground v.1.15,2013-05-15 08:40:00,
2013-05-15 04:46:00,67.6,54.1,29.97,West,259,4.0,9.0,62,0.00,,,0.00,0,Wunderground v.1.15,2013-05-15 08:46:00,
2013-05-15 04:52:00,67.6,54.1,29.98,West,265,3.0,9.0,62,0.00,,,0.00,0,Wunderground v.1.15,2013-05-15 08:52:00,
2013-05-15 04:58:00,67.6,53.7,29.99,West,275,3.0,9.0,61,0.00,,,0.00,0,Wunderground v.1.15,2013-05-15 08:58:00,
2013-05-15 05:04:00,67.6,53.7,29.99,West,274,3.0,6.0,61,0.00,,,0.00,0,Wunderground v.1.15,2013-05-15 09:04:00,
2013-05-15 05:10:00,67.6,54.1,29.99,West,259,3.0,3.0,62,0.00,,,0.00,0,Wunderground v.1.15,2013-05-15 09:10:00,
2013-05-15 05:16:00,67.6,53.7,29.99,West,277,3.0,7.0,61,0.00,,,0.00,0,Wunderground v.1.15,2013-05-15 09:16:00,
2013-05-15 05:22:00,67.4,53.5,29.99,West,259,4.0,5.0,61,0.00,,,0.00,0,Wunderground v.1.15,2013-05-15 09:22:00,
2013-05-15 05:28:00,67.4,53.5,29.99,WSW,254,4.0,5.0,61,0.00,,,0.00,0,Wunderground v.1.15,2013-05-15 09:28:00,
2013-05-15 05:34:00,67.6,53.7,29.99,West,265,2.0,7.0,61,0.00,,,0.00,0,Wunderground v.1.15,2013-05-15 09:34:00,
2013-05-15 05:40:00,67.6,53.7,29.99,WSW,252,2.0,7.0,61,0.00,,,0.00,0,Wunderground v.1.15,2013-05-15 09:40:00,
2013-05-15 05:46:00,67.6,53.7,29.99,West,264,2.0,7.0,61,0.00,,,0.00,0,Wunderground v.1.15,2013-05-15 09:46:00,
2013-05-15 05:52:00,67.4,53.5,30.00,West,272,2.0,7.0,61,0.00,,,0.00,0,Wunderground v.1.15,2013-05-15 09:52:00,
2013-05-15 05:58:00,67.4,53.5,30.00,West,274,1.0,7.0,61,0.00,,,0.00,0,Wunderground v.1.15,2013-05-15 09:58:00,
2013-05-15 06:04:00,67.3,53.4,30.00,West,276,1.0,2.0,61,0.00,,,0.00,0,Wunderground v.1.15,2013-05-15 10:04:00,
2013-05-15 06:10:00,67.1,53.2,30.00,West,276,2.0,2.0,61,0.00,,,0.00,0,Wunderground v.1.15,2013-05-15 10:10:00,
2013-05-15 06:16:00,67.1,53.2,30.00,West,272,2.0,4.0,61,0.00,,,0.00,0,Wunderground v.1.15,2013-05-15 10:16:00,
2013-05-15 06:22:00,67.1,53.2,30.00,WNW,287,2.0,2.0,61,0.00,,,0.00,0,Wunderground v.1.15,2013-05-15 10:22:00,
2013-05-15 06:28:00,67.1,53.2,30.01,WNW,290,2.0,3.0,61,0.00,,,0.00,0,Wunderground v.1.15,2013-05-15 10:28:00,
2013-05-15 06:34:00,67.1,53.2,30.01,West,264,2.0,8.0,61,0.00,,,0.00,5,Wunderground v.1.15,2013-05-15 10:34:00,
2013-05-15 06:40:00,67.1,52.7,30.02,West,278,2.0,8.0,60,0.00,,,0.00,11,Wunderground v.1.15,2013-05-15 10:40:00,
2013-05-15 06:46:00,67.3,52.9,30.02,West,260,2.0,8.0,60,0.00,,,0.00,18,Wunderground v.1.15,2013-05-15 10:46:00,
2013-05-15 06:52:00,67.1,53.2,30.02,West,269,1.0,8.0,61,0.00,,,0.00,33,Wunderground v.1.15,2013-05-15 10:52:00,
2013-05-15 06:58:00,67.1,53.2,30.02,West,269,0.0,8.0,61,0.00,,,0.00,32,Wunderground v.1.15,2013-05-15 10:58:00,
2013-05-15 07:04:00,66.9,53.0,30.02,West,269,0.0,2.0,61,0.00,,,0.00,35,Wunderground v.1.15,2013-05-15 11:04:00,
2013-05-15 07:10:00,66.9,53.0,30.03,WNW,299,1.0,2.0,61,0.00,,,0.00,44,Wunderground v.1.15,2013-05-15 11:10:00,
2013-05-15 07:18:00,66.8,53.4,30.03,West,270,2.0,3.0,62,0.00,,,0.00,97,Wunderground v.1.15,2013-05-15 11:18:00,
2013-05-15 07:24:00,66.8,54.7,30.03,West,268,3.0,3.0,65,0.00,,,0.00,114,Wunderground v.1.15,2013-05-15 11:24:00,
2013-05-15 07:30:00,66.9,53.0,30.03,West,269,3.0,3.0,61,0.00,,,0.00,128,Wunderground v.1.15,2013-05-15 11:30:00,
2013-05-15 07:36:00,67.3,53.4,30.03,West,260,3.0,7.0,61,0.00,,,0.00,148,Wunderground v.1.15,2013-05-15 11:36:00,
2013-05-15 07:42:00,67.6,54.1,30.03,WNW,282,3.0,7.0,62,0.00,,,0.00,165,Wunderground v.1.15,2013-05-15 11:42:00,
2013-05-15 07:48:00,67.9,54.0,30.04,West,269,2.0,7.0,61,0.00,,,0.00,183,Wunderground v.1.15,2013-05-15 11:48:00,
2013-05-15 07:54:00,68.3,53.4,30.04,West,276,2.0,7.0,59,0.00,,,0.00,200,Wunderground v.1.15,2013-05-15 11:54:00,
2013-05-15 08:02:00,68.9,54.9,30.04,WSW,254,3.0,3.0,61,0.00,,,0.00,225,Wunderground v.1.15,2013-05-15 12:02:00,
2013-05-15 08:08:00,69.3,54.8,30.04,WSW,257,2.0,3.0,60,0.00,,,0.00,251,Wunderground v.1.15,2013-05-15 12:08:00,
2013-05-15 08:14:00,69.6,55.6,30.04,West,270,2.0,3.0,61,0.00,,,0.00,267,Wunderground v.1.15,2013-05-15 12:14:00,
2013-05-15 08:20:00,70.1,55.6,30.05,South,174,2.0,2.0,60,0.00,,,0.00,290,Wunderground v.1.15,2013-05-15 12:20:00,
2013-05-15 08:28:00,70.6,55.6,30.05,WSW,252,2.0,3.0,59,0.00,,,0.00,318,Wunderground v.1.15,2013-05-15 12:28:00,
2013-05-15 08:34:00,71.1,55.6,30.05,West,271,3.0,6.0,58,0.00,,,0.00,339,Wunderground v.1.15,2013-05-15 12:34:00,
2013-05-15 08:42:00,71.5,55.5,30.05,WNW,284,4.0,8.0,57,0.00,,,0.00,367,Wunderground v.1.15,2013-05-15 12:42:00,
2013-05-15 08:48:00,71.8,55.3,30.05,WSW,238,3.0,8.0,56,0.00,,,0.00,383,Wunderground v.1.15,2013-05-15 12:48:00,
2013-05-15 08:54:00,72.1,54.0,30.05,SW,230,2.0,9.0,53,0.00,,,0.00,406,Wunderground v.1.15,2013-05-15 12:54:00,
2013-05-15 09:00:00,72.1,55.0,30.05,West,272,3.0,3.0,55,0.00,,,0.00,427,Wunderground v.1.15,2013-05-15 13:00:00,
2013-05-15 09:06:00,72.5,56.4,30.05,West,270,3.0,4.0,57,0.00,,,0.00,445,Wunderground v.1.15,2013-05-15 13:06:00,
2013-05-15 09:14:00,72.8,55.7,30.06,SW,236,3.0,4.0,55,0.00,,,0.00,473,Wunderground v.1.15,2013-05-15 13:14:00,
2013-05-15 09:20:00,73.3,55.1,30.06,WNW,291,3.0,4.0,53,0.00,,,0.00,492,Wunderground v.1.15,2013-05-15 13:20:00,
2013-05-15 09:26:00,73.7,55.5,30.05,SW,219,3.0,4.0,53,0.00,,,0.00,513,Wunderground v.1.15,2013-05-15 13:26:00,
2013-05-15 09:32:00,74.0,55.3,30.05,West,261,4.0,6.0,52,0.00,,,0.00,534,Wunderground v.1.15,2013-05-15 13:32:00,
2013-05-15 09:40:00,74.2,54.4,30.05,WNW,289,6.0,6.0,50,0.00,,,0.00,555,Wunderground v.1.15,2013-05-15 13:40:00,
2013-05-15 09:46:00,74.9,56.6,30.05,South,178,6.0,11.0,53,0.00,,,0.00,577,Wunderground v.1.15,2013-05-15 13:46:00,
2013-05-15 09:52:00,74.9,55.0,30.05,WSW,239,8.0,9.0,50,0.00,,,0.00,596,Wunderground v.1.15,2013-05-15 13:52:00,
2013-05-15 09:58:00,74.9,53.9,30.05,West,271,9.0,16.0,48,0.00,,,0.00,613,Wunderground v.1.15,2013-05-15 13:58:00,
2013-05-15 10:04:00,75.1,52.9,30.05,SSW,203,10.0,10.0,46,0.00,,,0.00,631,Wunderground v.1.15,2013-05-15 14:04:00,
2013-05-15 10:10:00,75.3,53.7,30.05,WSW,237,10.0,10.0,47,0.00,,,0.00,650,Wunderground v.1.15,2013-05-15 14:10:00,
2013-05-15 10:16:00,75.3,54.3,30.05,WSW,244,8.0,10.0,48,0.00,,,0.00,668,Wunderground v.1.15,2013-05-15 14:16:00,
2013-05-15 10:22:00,75.4,53.8,30.05,West,271,8.0,8.0,47,0.00,,,0.00,682,Wunderground v.1.15,2013-05-15 14:22:00,
2013-05-15 10:28:00,75.8,55.3,30.05,WNW,292,9.0,9.0,49,0.00,,,0.00,698,Wunderground v.1.15,2013-05-15 14:28:00,
2013-05-15 10:36:00,75.8,54.7,30.05,WSW,237,7.0,14.0,48,0.00,,,0.00,724,Wunderground v.1.15,2013-05-15 14:36:00,
2013-05-15 10:44:00,75.8,56.9,30.04,West,264,8.0,14.0,52,0.00,,,0.00,745,Wunderground v.1.15,2013-05-15 14:44:00,
2013-05-15 10:50:00,76.0,55.5,30.05,WSW,245,8.0,8.0,49,0.00,,,0.00,759,Wunderground v.1.15,2013-05-15 14:50:00,
2013-05-15 10:56:00,76.1,57.2,30.05,SW,232,7.0,14.0,52,0.00,,,0.00,775,Wunderground v.1.15,2013-05-15 14:56:00,
2013-05-15 11:02:00,76.0,54.9,30.05,SW,236,6.0,6.0,48,0.00,,,0.00,791,Wunderground v.1.15,2013-05-15 15:02:00,
2013-05-15 11:08:00,76.3,55.2,30.05,West,266,6.0,7.0,48,0.00,,,0.00,805,Wunderground v.1.15,2013-05-15 15:08:00,
2013-05-15 11:14:00,76.3,55.7,30.04,West,280,6.0,12.0,49,0.00,,,0.00,817,Wunderground v.1.15,2013-05-15 15:14:00,
2013-05-15 11:20:00,76.7,55.5,30.04,WSW,243,7.0,11.0,48,0.00,,,0.00,831,Wunderground v.1.15,2013-05-15 15:20:00,
2013-05-15 11:26:00,76.8,56.8,30.03,WSW,247,6.0,11.0,50,0.00,,,0.00,846,Wunderground v.1.15,2013-05-15 15:26:00,
2013-05-15 11:32:00,77.0,57.5,30.03,SW,214,6.0,20.0,51,0.00,,,0.00,858,Wunderground v.1.15,2013-05-15 15:32:00,
2013-05-15 11:38:00,77.2,56.6,30.04,West,259,6.0,20.0,49,0.00,,,0.00,868,Wunderground v.1.15,2013-05-15 15:38:00,
2013-05-15 11:44:00,77.2,56.6,30.03,SW,228,5.0,20.0,49,0.00,,,0.00,881,Wunderground v.1.15,2013-05-15 15:44:00,
2013-05-15 11:50:00,77.4,55.0,30.03,West,266,5.0,20.0,46,0.00,,,0.00,889,Wunderground v.1.15,2013-05-15 15:50:00,
2013-05-15 11:56:00,77.6,55.2,30.03,West,263,6.0,20.0,46,0.00,,,0.00,898,Wunderground v.1.15,2013-05-15 15:56:00,
2013-05-15 12:02:00,77.6,58.0,30.03,SW,229,6.0,6.0,51,0.00,,,0.00,911,Wunderground v.1.15,2013-05-15 16:02:00,
2013-05-15 12:08:00,77.9,54.8,30.03,West,270,4.0,6.0,45,0.00,,,0.00,923,Wunderground v.1.15,2013-05-15 16:08:00,
2013-05-15 12:14:00,78.1,56.2,30.02,WSW,257,5.0,12.0,47,0.00,,,0.00,926,Wunderground v.1.15,2013-05-15 16:14:00,
2013-05-15 12:22:00,78.3,57.6,30.02,WSW,258,5.0,5.0,49,0.00,,,0.00,939,Wunderground v.1.15,2013-05-15 16:22:00,
2013-05-15 12:28:00,78.3,57.0,30.02,West,266,6.0,6.0,48,0.00,,,0.00,946,Wunderground v.1.15,2013-05-15 16:28:00,
2013-05-15 12:34:00,78.3,55.8,30.01,WNW,284,5.0,14.0,46,0.00,,,0.00,953,Wunderground v.1.15,2013-05-15 16:34:00,
2013-05-15 12:42:00,78.5,57.2,30.01,WSW,258,5.0,14.0,48,0.00,,,0.00,928,Wunderground v.1.15,2013-05-15 16:42:00,
2013-05-15 12:48:00,78.6,58.4,30.00,West,279,4.0,14.0,50,0.00,,,0.00,907,Wunderground v.1.15,2013-05-15 16:48:00,
2013-05-15 12:54:00,78.6,57.8,30.00,West,264,4.0,14.0,49,0.00,,,0.00,911,Wunderground v.1.15,2013-05-15 16:54:00,
2013-05-15 13:00:00,79.2,57.8,30.00,West,276,4.0,4.0,48,0.00,,,0.00,954,Wunderground v.1.15,2013-05-15 17:00:00,
2013-05-15 13:06:00,79.4,59.1,30.00,SW,230,4.0,5.0,50,0.00,,,0.00,967,Wunderground v.1.15,2013-05-15 17:06:00,
2013-05-15 13:12:00,79.2,57.8,30.00,West,278,5.0,5.0,48,0.00,,,0.00,976,Wunderground v.1.15,2013-05-15 17:12:00,
2013-05-15 13:18:00,79.2,57.2,30.00,SW,233,5.0,6.0,47,0.00,,,0.00,976,Wunderground v.1.15,2013-05-15 17:18:00,
2013-05-15 13:24:00,79.6,55.8,29.99,WNW,290,4.0,5.0,44,0.00,,,0.00,977,Wunderground v.1.15,2013-05-15 17:24:00,
2013-05-15 13:30:00,79.6,59.9,30.00,West,266,4.0,6.0,51,0.00,,,0.00,977,Wunderground v.1.15,2013-05-15 17:30:00,
2013-05-15 13:36:00,79.4,56.8,29.99,WNW,283,5.0,12.0,46,0.00,,,0.00,979,Wunderground v.1.15,2013-05-15 17:36:00,
2013-05-15 13:42:00,79.8,56.6,29.99,WSW,249,5.0,12.0,45,0.00,,,0.00,981,Wunderground v.1.15,2013-05-15 17:42:00,
2013-05-15 13:48:00,80.5,57.8,29.99,SW,231,5.0,12.0,46,0.00,,,0.00,976,Wunderground v.1.15,2013-05-15 17:48:00,
2013-05-15 13:54:00,80.3,57.0,29.99,WSW,244,5.0,12.0,45,0.00,,,0.00,972,Wunderground v.1.15,2013-05-15 17:54:00,
2013-05-15 14:04:00,80.3,57.6,29.99,SW,234,5.0,9.0,46,0.00,,,0.00,969,Wunderground v.1.15,2013-05-15 18:04:00,
2013-05-15 14:10:00,80.3,57.0,29.98,SW,232,5.0,6.0,45,0.00,,,0.00,963,Wunderground v.1.15,2013-05-15 18:10:00,
2013-05-15 14:16:00,80.5,60.7,29.98,West,267,5.0,7.0,51,0.00,,,0.00,960,Wunderground v.1.15,2013-05-15 18:16:00,
2013-05-15 14:22:00,80.3,58.8,29.98,West,269,5.0,5.0,48,0.00,,,0.00,954,Wunderground v.1.15,2013-05-15 18:22:00,
2013-05-15 14:28:00,80.3,59.4,29.98,SW,235,5.0,6.0,49,0.00,,,0.00,949,Wunderground v.1.15,2013-05-15 18:28:00,
2013-05-15 14:36:00,80.1,56.8,29.97,West,274,6.0,12.0,45,0.00,,,0.00,946,Wunderground v.1.15,2013-05-15 18:36:00,
2013-05-15 14:42:00,80.3,57.6,29.97,West,259,6.0,12.0,46,0.00,,,0.00,937,Wunderground v.1.15,2013-05-15 18:42:00,
2013-05-15 14:48:00,80.9,56.9,29.96,WSW,247,5.0,12.0,44,0.00,,,0.00,928,Wunderground v.1.15,2013-05-15 18:48:00,
2013-05-15 14:54:00,81.1,56.5,29.96,SW,223,5.0,12.0,43,0.00,,,0.00,923,Wunderground v.1.15,2013-05-15 18:54:00,
2013-05-15 15:00:00,81.2,57.2,29.96,WSW,239,5.0,5.0,44,0.00,,,0.00,914,Wunderground v.1.15,2013-05-15 19:00:00,
2013-05-15 15:10:00,81.2,55.3,29.96,West,280,5.0,7.0,41,0.00,,,0.00,900,Wunderground v.1.15,2013-05-15 19:10:00,
2013-05-15 15:16:00,81.4,57.4,29.96,West,272,5.0,9.0,44,0.00,,,0.00,891,Wunderground v.1.15,2013-05-15 19:16:00,
2013-05-15 15:22:00,81.6,58.2,29.95,WSW,239,4.0,5.0,45,0.00,,,0.00,879,Wunderground v.1.15,2013-05-15 19:22:00,
2013-05-15 15:28:00,81.8,56.5,29.95,WNW,289,4.0,5.0,42,0.00,,,0.00,867,Wunderground v.1.15,2013-05-15 19:28:00,
2013-05-15 15:34:00,81.8,57.1,29.95,SW,230,5.0,15.0,43,0.00,,,0.00,858,Wunderground v.1.15,2013-05-15 19:34:00,
2013-05-15 15:40:00,81.6,54.9,29.95,West,267,5.0,15.0,40,0.00,,,0.00,849,Wunderground v.1.15,2013-05-15 19:40:00,
2013-05-15 15:50:00,82.2,56.8,29.94,West,262,4.0,15.0,42,0.00,,,0.00,826,Wunderground v.1.15,2013-05-15 19:50:00,
2013-05-15 15:56:00,82.2,56.8,29.94,West,263,5.0,15.0,42,0.00,,,0.00,814,Wunderground v.1.15,2013-05-15 19:56:00,
2013-05-15 16:02:00,82.4,58.9,29.94,West,280,4.0,10.0,45,0.00,,,0.00,793,Wunderground v.1.15,2013-05-15 20:02:00,
2013-05-15 16:10:00,82.4,57.0,29.93,SW,228,5.0,5.0,42,0.00,,,0.00,777,Wunderground v.1.15,2013-05-15 20:10:00,
2013-05-15 16:16:00,82.4,55.7,29.93,West,262,5.0,7.0,40,0.00,,,0.00,761,Wunderground v.1.15,2013-05-15 20:16:00,
2013-05-15 16:22:00,82.2,57.5,29.93,West,278,4.0,6.0,43,0.00,,,0.00,749,Wunderground v.1.15,2013-05-15 20:22:00,
2013-05-15 16:28:00,82.4,56.3,29.93,West,262,4.0,6.0,41,0.00,,,0.00,733,Wunderground v.1.15,2013-05-15 20:28:00,
2013-05-15 16:34:00,82.6,55.8,29.92,West,264,5.0,11.0,40,0.00,,,0.00,715,Wunderground v.1.15,2013-05-15 20:34:00,
2013-05-15 16:40:00,82.8,58.7,29.92,West,261,3.0,11.0,44,0.00,,,0.00,698,Wunderground v.1.15,2013-05-15 20:40:00,
2013-05-15 16:46:00,82.8,55.3,29.92,WNW,299,2.0,11.0,39,0.00,,,0.00,680,Wunderground v.1.15,2013-05-15 20:46:00,
2013-05-15 16:52:00,83.0,54.8,29.92,SW,228,2.0,4.0,38,0.00,,,0.00,664,Wunderground v.1.15,2013-05-15 20:52:00,
2013-05-15 16:58:00,82.6,56.5,29.92,West,276,3.0,11.0,41,0.00,,,0.00,649,Wunderground v.1.15,2013-05-15 20:58:00,
2013-05-15 17:04:00,82.4,55.7,29.92,West,260,2.0,3.0,40,0.00,,,0.00,629,Wunderground v.1.15,2013-05-15 21:04:00,
2013-05-15 17:10:00,82.6,56.5,29.92,SW,222,2.0,2.0,41,0.00,,,0.00,606,Wunderground v.1.15,2013-05-15 21:10:00,
2013-05-15 17:16:00,82.8,56.0,29.92,West,263,3.0,4.0,40,0.00,,,0.00,589,Wunderground v.1.15,2013-05-15 21:16:00,
2013-05-15 17:24:00,82.8,56.0,29.91,WSW,243,2.0,5.0,40,0.00,,,0.00,570,Wunderground v.1.15,2013-05-15 21:24:00,
2013-05-15 17:30:00,82.8,57.4,29.91,SW,234,2.0,3.0,42,0.00,,,0.00,550,Wunderground v.1.15,2013-05-15 21:30:00,
2013-05-15 17:36:00,82.4,57.7,29.91,West,270,2.0,13.0,43,0.00,,,0.00,529,Wunderground v.1.15,2013-05-15 21:36:00,
2013-05-15 17:42:00,82.6,56.5,29.90,West,274,3.0,13.0,41,0.00,,,0.00,504,Wunderground v.1.15,2013-05-15 21:42:00,
2013-05-15 17:48:00,82.4,56.3,29.91,West,268,2.0,13.0,41,0.00,,,0.00,483,Wunderground v.1.15,2013-05-15 21:48:00,
2013-05-15 17:56:00,82.6,57.8,29.90,West,280,2.0,13.0,43,0.00,,,0.00,462,Wunderground v.1.15,2013-05-15 21:56:00,
2013-05-15 18:04:00,82.2,56.2,29.90,West,268,2.0,3.0,41,0.00,,,0.00,434,Wunderground v.1.15,2013-05-15 22:04:00,
2013-05-15 18:10:00,82.0,56.0,29.90,West,279,2.0,7.0,41,0.00,,,0.00,413,Wunderground v.1.15,2013-05-15 22:10:00,
2013-05-15 18:16:00,82.0,59.2,29.90,WNW,303,3.0,7.0,46,0.00,,,0.00,390,Wunderground v.1.15,2013-05-15 22:16:00,
2013-05-15 18:26:00,82.0,57.3,29.90,West,273,3.0,5.0,43,0.00,,,0.00,355,Wunderground v.1.15,2013-05-15 22:26:00,
2013-05-15 18:34:00,81.8,56.5,29.90,WSW,248,3.0,9.0,42,0.00,,,0.00,327,Wunderground v.1.15,2013-05-15 22:34:00,
2013-05-15 18:40:00,81.8,57.1,29.90,West,270,3.0,3.0,43,0.00,,,0.00,309,Wunderground v.1.15,2013-05-15 22:40:00,
2013-05-15 18:48:00,81.4,56.1,29.89,West,281,3.0,9.0,42,0.00,,,0.00,283,Wunderground v.1.15,2013-05-15 22:48:00,
2013-05-15 18:54:00,81.4,56.8,29.89,West,267,3.0,9.0,43,0.00,,,0.00,260,Wunderground v.1.15,2013-05-15 22:54:00,
2013-05-15 19:00:00,81.8,56.5,29.89,WSW,251,3.0,3.0,42,0.00,,,0.00,237,Wunderground v.1.15,2013-05-15 23:00:00,
2013-05-15 19:06:00,81.8,56.5,29.89,West,270,3.0,3.0,42,0.00,,,0.00,220,Wunderground v.1.15,2013-05-15 23:06:00,
2013-05-15 19:12:00,81.6,56.3,29.89,West,264,4.0,6.0,42,0.00,,,0.00,167,Wunderground v.1.15,2013-05-15 23:12:00,
2013-05-15 19:18:00,81.2,56.6,29.89,WNW,282,4.0,6.0,43,0.00,,,0.00,91,Wunderground v.1.15,2013-05-15 23:18:00,
2013-05-15 19:24:00,80.9,56.3,29.89,West,261,4.0,6.0,43,0.00,,,0.00,142,Wunderground v.1.15,2013-05-15 23:24:00,
2013-05-15 19:32:00,80.5,55.9,29.89,WNW,286,4.0,10.0,43,0.00,,,0.00,121,Wunderground v.1.15,2013-05-15 23:32:00,
2013-05-15 19:38:00,80.5,56.6,29.89,West,271,3.0,10.0,44,0.00,,,0.00,98,Wunderground v.1.15,2013-05-15 23:38:00,
2013-05-15 19:44:00,80.3,56.4,29.90,West,274,3.0,10.0,44,0.00,,,0.00,58,Wunderground v.1.15,2013-05-15 23:44:00,
2013-05-15 19:50:00,79.9,56.7,29.90,WSW,253,2.0,10.0,45,0.00,,,0.00,37,Wunderground v.1.15,2013-05-15 23:50:00,
2013-05-15 19:56:00,79.8,56.6,29.89,West,270,2.0,10.0,45,0.00,,,0.00,26,Wunderground v.1.15,2013-05-15 23:56:00,
2013-05-15 20:02:00,79.4,56.8,29.89,West,272,2.0,3.0,46,0.00,,,0.00,23,Wunderground v.1.15,2013-05-16 00:02:00,
2013-05-15 20:08:00,79.0,57.0,29.89,West,272,3.0,3.0,47,0.00,,,0.00,19,Wunderground v.1.15,2013-05-16 00:08:00,
2013-05-15 20:14:00,78.6,56.7,29.89,West,274,3.0,3.0,47,0.00,,,0.00,14,Wunderground v.1.15,2013-05-16 00:14:00,
2013-05-15 20:24:00,78.1,56.2,29.89,West,281,2.0,3.0,47,0.00,,,0.00,5,Wunderground v.1.15,2013-05-16 00:24:00,
2013-05-15 20:30:00,77.7,56.4,29.89,West,259,2.0,2.0,48,0.00,,,0.00,0,Wunderground v.1.15,2013-05-16 00:30:00,
2013-05-15 20:36:00,77.6,56.4,29.89,West,269,2.0,9.0,48,0.00,,,0.00,0,Wunderground v.1.15,2013-05-16 00:36:00,
2013-05-15 20:44:00,77.2,56.0,29.89,WNW,284,2.0,9.0,48,0.00,,,0.00,0,Wunderground v.1.15,2013-05-16 00:44:00,
2013-05-15 20:50:00,77.0,55.8,29.89,WNW,284,1.0,9.0,48,0.00,,,0.00,0,Wunderground v.1.15,2013-05-16 00:50:00,
2013-05-15 20:58:00,76.7,56.1,29.90,WNW,289,1.0,9.0,49,0.00,,,0.00,0,Wunderground v.1.15,2013-05-16 00:58:00,
2013-05-15 21:04:00,76.5,55.9,29.89,WNW,289,1.0,1.0,49,0.00,,,0.00,0,Wunderground v.1.15,2013-05-16 01:04:00,
2013-05-15 21:10:00,76.3,56.3,29.89,West,275,1.0,2.0,50,0.00,,,0.00,0,Wunderground v.1.15,2013-05-16 01:10:00,
2013-05-15 21:20:00,76.0,56.0,29.89,West,278,2.0,2.0,50,0.00,,,0.00,0,Wunderground v.1.15,2013-05-16 01:20:00,
2013-05-15 21:26:00,75.8,55.8,29.89,WNW,283,2.0,4.0,50,0.00,,,0.00,0,Wunderground v.1.15,2013-05-16 01:26:00,
2013-05-15 21:32:00,75.6,55.6,29.89,WNW,289,2.0,6.0,50,0.00,,,0.00,0,Wunderground v.1.15,2013-05-16 01:32:00,
2013-05-15 21:38:00,75.4,55.5,29.89,WNW,289,1.0,6.0,50,0.00,,,0.00,0,Wunderground v.1.15,2013-05-16 01:38:00,
2013-05-15 21:44:00,75.3,55.9,29.90,WNW,289,0.0,6.0,51,0.00,,,0.00,0,Wunderground v.1.15,2013-05-16 01:44:00,
2013-05-15 21:52:00,74.9,55.6,29.90,WNW,288,1.0,6.0,51,0.00,,,0.00,0,Wunderground v.1.15,2013-05-16 01:52:00,
2013-05-15 21:58:00,74.6,55.8,29.89,WNW,287,1.0,6.0,52,0.00,,,0.00,0,Wunderground v.1.15,2013-05-16 01:58:00,
2013-05-15 22:04:00,74.4,56.2,29.90,West,269,1.0,1.0,53,0.00,,,0.00,0,Wunderground v.1.15,2013-05-16 02:04:00,
2013-05-15 22:10:00,74.0,55.8,29.90,WSW,254,1.0,3.0,53,0.00,,,0.00,0,Wunderground v.1.15,2013-05-16 02:10:00,
2013-05-15 22:16:00,73.9,55.7,29.90,West,272,2.0,3.0,53,0.00,,,0.00,0,Wunderground v.1.15,2013-05-16 02:16:00,
2013-05-15 22:24:00,73.7,56.0,29.91,West,274,1.0,1.0,54,0.00,,,0.00,0,Wunderground v.1.15,2013-05-16 02:24:00,
2013-05-15 22:30:00,73.7,56.0,29.91,West,274,1.0,1.0,54,0.00,,,0.00,0,Wunderground v.1.15,2013-05-16 02:30:00,
2013-05-15 22:36:00,73.7,56.0,29.91,West,274,0.0,4.0,54,0.00,,,0.00,0,Wunderground v.1.15,2013-05-16 02:36:00,
2013-05-15 22:42:00,73.5,55.8,29.92,West,274,0.0,4.0,54,0.00,,,0.00,0,Wunderground v.1.15,2013-05-16 02:42:00,
2013-05-15 22:48:00,73.2,56.1,29.92,West,274,0.0,4.0,55,0.00,,,0.00,0,Wunderground v.1.15,2013-05-16 02:48:00,
2013-05-15 22:54:00,73.0,56.4,29.92,West,274,0.0,4.0,56,0.00,,,0.00,0,Wunderground v.1.15,2013-05-16 02:54:00,
2013-05-15 23:00:00,72.7,56.1,29.92,West,274,0.0,0.0,56,0.00,,,0.00,0,Wunderground v.1.15,2013-05-16 03:00:00,
2013-05-15 23:06:00,72.5,55.9,29.92,West,265,0.0,1.0,56,0.00,,,0.00,0,Wunderground v.1.15,2013-05-16 03:06:00,
2013-05-15 23:16:00,72.3,55.7,29.92,West,269,1.0,2.0,56,0.00,,,0.00,0,Wunderground v.1.15,2013-05-16 03:16:00,
2013-05-15 23:24:00,72.3,55.7,29.92,West,272,0.0,1.0,56,0.00,,,0.00,0,Wunderground v.1.15,2013-05-16 03:24:00,
2013-05-15 23:30:00,72.1,55.5,29.92,West,274,0.0,0.0,56,0.00,,,0.00,0,Wunderground v.1.15,2013-05-16 03:30:00,
2013-05-15 23:36:00,72.1,56.0,29.92,West,274,0.0,5.0,57,0.00,,,0.00,0,Wunderground v.1.15,2013-05-16 03:36:00,
2013-05-15 23:42:00,72.0,56.4,29.92,West,274,0.0,5.0,58,0.00,,,0.00,0,Wunderground v.1.15,2013-05-16 03:42:00,
2013-05-15 23:48:00,71.8,56.2,29.93,West,262,1.0,5.0,58,0.00,,,0.00,0,Wunderground v.1.15,2013-05-16 03:48:00,
2013-05-15 23:56:00,71.6,56.5,29.93,WSW,245,3.0,5.0,59,0.00,,,0.00,0,Wunderground v.1.15,2013-05-16 03:56:00,